COSMOS 2251 DEB, 34579

Orbit data source: Space-Track

COSMOS 2251 DEB, 34579 is space debris in LEO originally from a launch on Wed, 16 Jun 1993 UTC launched from the Plesetsk Missile And Space Complex (PKMTR). The debris from Iridium 33, an American commercial communications satellite, has been tracked extensively since its accidental collision with the defunct Russian satellite Cosmos 2251 in 2009. This event, occurring at high speed in low Earth orbit (LEO), generated thousands of pieces of space debris, significantly increasing the risk of further collisions. The Iridium 33 debris cloud has impacted space traffic management and orbital debris mitigation strategies, making it a subject of ongoing study in space situational awareness.

Loading next visibility...
Identifier
34579, 1993-036VR
Orbit
LEO
Country
Flag of CISCIS
Related business
Manufacturer
Unknown
Mission
Spacecraft
Bus & Motor
Unknown
Mass
Unknown
Launch date (UTC)
1993-06-16 (33 years ago)
Launch vehicle
Unknown
Launch site
Plesetsk Missile And Space Complex (PKMTR)
Object type
Payload
Rocket body
Debris
Shape & HBR
Unknown shape, 0.1 m
Radar Cross Section
Medium (>0.1 m² and <1 m²)

Expand to show TLE details & history
Last TLE update: 1 day ago

TLE from 1 day ago
0 COSMOS 2251 DEB
1 34579U 93036VR  26207.33764678  .00001238  00000-0  35404-3 0  9993
2 34579  74.0526 163.6392 0026674 180.7768 307.1778 14.45935938914341
Epoch: 2026-07-26T08:06Z
TLE epoch observation values (Epoch: 2026-07-26T08:06:12.681Z)
Latitude
49.63067°
Longitude
-101.48196°
Altitude
735.04 km
Speed
7.498 km/s
True Right ascension
21h 36m 25s
True Declination
49° 27' 37"
Sunlit
Object was in daylight at epoch
Visualization orbit readout
Latitude
Unknown
Longitude
Unknown
Altitude
Unknown
Speed
Unknown
Apparent Right ascension
Unknown
Apparent Declination
Unknown
Sunlit
N/A
Visualization observer readout
Local Sidereal Time
01:37:50
Azimuth
Unknown
Elevation
Unknown
Doppler factor
Unknown
Orbital elements
Apogee altitude
755.543 km
Perigee altitude
717.587 km
Semi-major axis
7,114.702 km
Eccentricity
0.00267
Inclination
74.0526°
RAAN
163.6392°
Arg. of periapsis
180.7768°
True anomaly
306.93377°
Mean anomaly
307.1778°
Eccentric anomaly
307.05583°
Mean motion
3.61666 °/min
Orbital period
99.54 mins
BSTAR
0.00035404
Loading maneuver chart data...
Computing Atmospheric mass density...

Documentation

Showing up to 5 results
|